• în România
  • Lista ţărilor
  • Pe 7 zile
  • Temperatura apei
  • Hartă satelitară
  • Meteo pe hartă
  • Widget-uri
  • user-avatar
    Intrare

    Meteo pe oră la Pomorie

    Astăzi, 26 Septembrie, Miercuri

    Timp Temperatura Precipitaţii Vânt Presiune Umiditate
    00:00 +10°C° 0 mm 7 m/s 772 mmHg 50%
    01:00 +10°C° 0 mm 7 m/s 772 mmHg 52%
    02:00 +9°C° 0 mm 8 m/s 773 mmHg 55%
    03:00 +9°C° 0 mm 8 m/s 773 mmHg 56%
    04:00 +9°C° 0 mm 8 m/s 773 mmHg 56%
    05:00 +7°C° 0 mm 9 m/s 773 mmHg 57%
    06:00 +8°C° 0 mm 9 m/s 773 mmHg 55%
    07:00 +10°C° 0 mm 9 m/s 773 mmHg 53%
    08:00 +10°C° 0 mm 9 m/s 774 mmHg 50%
    09:00 +12°C° 0 mm 9 m/s 774 mmHg 46%
    10:00 +13°C° 0 mm 9 m/s 774 mmHg 42%
    11:00 +15°C° 0 mm 9 m/s 774 mmHg 38%
    12:00 +16°C° 0 mm 9 m/s 773 mmHg 36%
    13:00 +17°C° 0 mm 9 m/s 773 mmHg 35%
    14:00 +17°C° 0 mm 9 m/s 773 mmHg 33%
    15:00 +17°C° 0 mm 9 m/s 773 mmHg 35%
    16:00 +16°C° 0 mm 9 m/s 773 mmHg 37%
    17:00 +16°C° 0 mm 9 m/s 773 mmHg 38%
    18:00 +15°C° 0.1 mm 9 m/s 773 mmHg 41%
    19:00 +12°C° 0.1 mm 9 m/s 773 mmHg 45%
    20:00 +11°C° 0.1 mm 8 m/s 773 mmHg 48%
    21:00 +11°C° 0.1 mm 9 m/s 773 mmHg 48%
    22:00 +11°C° 0.1 mm 9 m/s 773 mmHg 49%
    23:00 +10°C° 0.1 mm 9 m/s 773 mmHg 50%

    Mâine, 27 Septembrie, Joi

    Timp Temperatura Precipitaţii Vânt Presiune Umiditate
    00:00 +10°C° 0.1 mm 9 m/s 773 mmHg 50%
    01:00 +8°C° 0.1 mm 9 m/s 773 mmHg 50%
    02:00 +9°C° 0.1 mm 8 m/s 773 mmHg 51%
    03:00 +9°C° 0.1 mm 8 m/s 773 mmHg 51%
    04:00 +7°C° 0.1 mm 8 m/s 772 mmHg 52%
    05:00 +7°C° 0.1 mm 8 m/s 772 mmHg 52%
    06:00 +9°C° 0.1 mm 8 m/s 772 mmHg 50%
    07:00 +9°C° 0.1 mm 8 m/s 772 mmHg 47%
    08:00 +10°C° 0.1 mm 8 m/s 772 mmHg 45%
    09:00 +12°C° 0 mm 8 m/s 772 mmHg 43%
    10:00 +15°C° 0 mm 7 m/s 772 mmHg 41%
    11:00 +16°C° 0 mm 7 m/s 772 mmHg 39%
    12:00 +17°C° 0 mm 7 m/s 772 mmHg 39%
    13:00 +18°C° 0 mm 7 m/s 771 mmHg 39%
    14:00 +20°C° 0 mm 7 m/s 771 mmHg 39%
    15:00 +19°C° 0 mm 6 m/s 770 mmHg 40%
    16:00 +19°C° 0 mm 6 m/s 770 mmHg 42%
    17:00 +17°C° 0 mm 6 m/s 770 mmHg 43%
    18:00 +16°C° 0 mm 6 m/s 770 mmHg 47%
    19:00 +14°C° 0 mm 5 m/s 770 mmHg 52%
    20:00 +13°C° 0 mm 4 m/s 770 mmHg 56%
    21:00 +13°C° 0 mm 4 m/s 770 mmHg 56%
    22:00 +12°C° 0 mm 4 m/s 770 mmHg 56%
    23:00 +12°C° 0 mm 4 m/s 770 mmHg 56%

    Poimâine, 28 Septembrie, Vineri

    Timp Temperatura Precipitaţii Vânt Presiune Umiditate
    00:00 +11°C° 0 mm 4 m/s 770 mmHg 56%
    01:00 +11°C° 0 mm 4 m/s 769 mmHg 56%
    02:00 +11°C° 0 mm 4 m/s 769 mmHg 55%
    03:00 +10°C° 0 mm 4 m/s 769 mmHg 54%
    04:00 +10°C° 0 mm 4 m/s 768 mmHg 54%
    05:00 +10°C° 0 mm 4 m/s 768 mmHg 53%
    06:00 +11°C° 0 mm 4 m/s 768 mmHg 50%
    07:00 +12°C° 0 mm 4 m/s 767 mmHg 46%
    08:00 +14°C° 0 mm 4 m/s 767 mmHg 43%
    09:00 +17°C° 0 mm 4 m/s 767 mmHg 44%
    10:00 +19°C° 0 mm 4 m/s 767 mmHg 44%
    11:00 +21°C° 0 mm 4 m/s 766 mmHg 45%
    12:00 +21°C° 0 mm 4 m/s 766 mmHg 44%
    13:00 +22°C° 0 mm 5 m/s 765 mmHg 43%
    14:00 +23°C° 0 mm 5 m/s 764 mmHg 43%
    15:00 +22°C° 0 mm 5 m/s 764 mmHg 47%
    16:00 +21°C° 0 mm 4 m/s 763 mmHg 51%
    17:00 +20°C° 0 mm 4 m/s 763 mmHg 54%
    18:00 +19°C° 0 mm 4 m/s 763 mmHg 61%
    19:00 +17°C° 0 mm 3 m/s 763 mmHg 67%
    20:00 +16°C° 0 mm 3 m/s 763 mmHg 74%
    21:00 +16°C° 0 mm 3 m/s 763 mmHg 75%
    22:00 +16°C° 0 mm 3 m/s 763 mmHg 76%
    23:00 +16°C° 0 mm 2 m/s 763 mmHg 76%

    29 Septembrie, Sâmbătă

    Timp Temperatura Precipitaţii Vânt Presiune Umiditate
    00:00 +16°C° 0 mm 2 m/s 762 mmHg 76%
    01:00 +16°C° 0 mm 2 m/s 762 mmHg 76%
    02:00 +16°C° 0 mm 2 m/s 762 mmHg 76%
    03:00 +16°C° 0.1 mm 2 m/s 761 mmHg 78%
    04:00 +16°C° 0.1 mm 2 m/s 761 mmHg 80%
    05:00 +15°C° 0.1 mm 2 m/s 761 mmHg 82%
    06:00 +16°C° 0 mm 2 m/s 761 mmHg 79%
    07:00 +17°C° 0 mm 3 m/s 761 mmHg 76%
    08:00 +18°C° 0 mm 3 m/s 761 mmHg 74%
    09:00 +19°C° 0 mm 3 m/s 761 mmHg 71%
    10:00 +20°C° 0 mm 3 m/s 761 mmHg 69%
    11:00 +21°C° 0 mm 4 m/s 761 mmHg 66%
    12:00 +21°C° 0.1 mm 4 m/s 761 mmHg 67%
    13:00 +21°C° 0.1 mm 4 m/s 760 mmHg 68%
    14:00 +21°C° 0.1 mm 5 m/s 760 mmHg 69%
    15:00 +20°C° 0.5 mm 5 m/s 760 mmHg 70%
    16:00 +20°C° 0.5 mm 5 m/s 760 mmHg 71%
    17:00 +19°C° 0.5 mm 5 m/s 760 mmHg 73%
    18:00 +17°C° 0.6 mm 6 m/s 761 mmHg 73%
    19:00 +16°C° 0.6 mm 6 m/s 761 mmHg 74%
    20:00 +15°C° 0.6 mm 7 m/s 762 mmHg 74%
    21:00 +15°C° 0.9 mm 7 m/s 762 mmHg 76%
    22:00 +15°C° 0.9 mm 8 m/s 762 mmHg 78%
    23:00 +13°C° 0.9 mm 8 m/s 762 mmHg 79%

    30 Septembrie, Duminică

    Timp Temperatura Precipitaţii Vânt Presiune Umiditate
    00:00 +13°C° 0.3 mm 8 m/s 762 mmHg 81%
    01:00 +13°C° 0.3 mm 8 m/s 762 mmHg 83%
    02:00 +13°C° 0.3 mm 9 m/s 762 mmHg 84%
    03:00 +12°C° 0 mm 9 m/s 763 mmHg 83%
    04:00 +12°C° 0 mm 9 m/s 763 mmHg 83%
    05:00 +12°C° 0 mm 9 m/s 763 mmHg 82%
    06:00 +12°C° 0.1 mm 10 m/s 763 mmHg 80%
    07:00 +12°C° 0.1 mm 10 m/s 763 mmHg 79%
    08:00 +12°C° 0.1 mm 10 m/s 764 mmHg 78%
    09:00 +13°C° 0.4 mm 10 m/s 764 mmHg 74%
    10:00 +14°C° 0.4 mm 10 m/s 764 mmHg 70%
    11:00 +16°C° 0.4 mm 10 m/s 764 mmHg 66%
    12:00 +16°C° 0.5 mm 10 m/s 764 mmHg 67%
    13:00 +17°C° 0.5 mm 10 m/s 764 mmHg 67%
    14:00 +17°C° 0.5 mm 10 m/s 763 mmHg 67%
    15:00 +17°C° 0.6 mm 10 m/s 763 mmHg 69%
    16:00 +17°C° 0.6 mm 10 m/s 763 mmHg 71%
    17:00 +17°C° 0.6 mm 9 m/s 763 mmHg 74%
    18:00 +16°C° 0.6 mm 10 m/s 763 mmHg 75%
    19:00 +16°C° 0.6 mm 10 m/s 763 mmHg 77%
    20:00 +16°C° 0.6 mm 10 m/s 763 mmHg 79%
    21:00 +16°C° 0.6 mm 9 m/s 763 mmHg 81%
    22:00 +16°C° 0.6 mm 9 m/s 763 mmHg 82%
    23:00 +16°C° 0.6 mm 9 m/s 763 mmHg 84%

    1 Octombrie, Luni

    Timp Temperatura Precipitaţii Vânt Presiune Umiditate
    00:00 +15°C° 0.5 mm 9 m/s 762 mmHg 83%
    01:00 +15°C° 0.5 mm 9 m/s 762 mmHg 83%
    02:00 +15°C° 0.5 mm 9 m/s 762 mmHg 82%
    03:00 +13°C° 0.5 mm 9 m/s 761 mmHg 80%
    04:00 +13°C° 0.5 mm 9 m/s 761 mmHg 79%
    05:00 +13°C° 0.5 mm 9 m/s 761 mmHg 77%
    06:00 +13°C° 0.6 mm 9 m/s 761 mmHg 77%
    07:00 +13°C° 0.6 mm 9 m/s 761 mmHg 77%
    08:00 +13°C° 0.6 mm 9 m/s 760 mmHg 77%
    09:00 +15°C° 0.6 mm 9 m/s 760 mmHg 77%
    10:00 +15°C° 0.6 mm 9 m/s 760 mmHg 77%
    11:00 +16°C° 0.6 mm 9 m/s 760 mmHg 77%
    12:00 +16°C° 1.8 mm 9 m/s 760 mmHg 77%
    13:00 +16°C° 1.8 mm 9 m/s 759 mmHg 78%
    14:00 +16°C° 1.8 mm 9 m/s 759 mmHg 79%
    15:00 +16°C° 4.2 mm 8 m/s 759 mmHg 82%
    16:00 +15°C° 4.2 mm 8 m/s 759 mmHg 85%
    17:00 +15°C° 4.2 mm 8 m/s 759 mmHg 88%
    18:00 +15°C° 1.9 mm 8 m/s 759 mmHg 89%
    19:00 +15°C° 1.9 mm 8 m/s 759 mmHg 90%
    20:00 +13°C° 1.9 mm 8 m/s 759 mmHg 91%
    21:00 +14°C° 0.6 mm 7 m/s 759 mmHg 91%
    22:00 +14°C° 0.6 mm 7 m/s 759 mmHg 91%
    23:00 +14°C° 0.6 mm 7 m/s 759 mmHg 92%
    Arată mai mult